Tiempo cada hora Cegielnia

Hoy, 18 Abril, Domingo

Tiempo Temperatura Precipitaciones Viento Presión Humedad
00:00 +7°C° 0 mm 2 mps 756 mmHg 91%
01:00 +7°C° 0 mm 2 mps 756 mmHg 92%
02:00 +7°C° 0 mm 2 mps 756 mmHg 92%
03:00 +7°C° 0 mm 2 mps 756 mmHg 92%
04:00 +7°C° 0 mm 2 mps 756 mmHg 93%
05:00 +7°C° 0 mm 2 mps 756 mmHg 92%
06:00 +8°C° 0 mm 2 mps 756 mmHg 91%
07:00 +8°C° 0 mm 2 mps 756 mmHg 90%
08:00 +9°C° 0.1 mm 2 mps 756 mmHg 88%
09:00 +10°C° 0.1 mm 2 mps 756 mmHg 87%
10:00 +11°C° 0.1 mm 1 mps 756 mmHg 85%
11:00 +12°C° 0.1 mm 1 mps 756 mmHg 82%
12:00 +13°C° 0.1 mm 1 mps 756 mmHg 78%
13:00 +14°C° 0.1 mm 1 mps 756 mmHg 75%
14:00 +14°C° 0.3 mm 1 mps 755 mmHg 76%
15:00 +14°C° 0.3 mm 1 mps 755 mmHg 77%
16:00 +14°C° 0.3 mm 1 mps 755 mmHg 78%
17:00 +13°C° 0.4 mm 2 mps 755 mmHg 81%
18:00 +12°C° 0.4 mm 2 mps 755 mmHg 84%
19:00 +10°C° 0.4 mm 2 mps 756 mmHg 86%
20:00 +10°C° 0.1 mm 2 mps 756 mmHg 87%
21:00 +9°C° 0.1 mm 2 mps 756 mmHg 88%
22:00 +8°C° 0.1 mm 2 mps 756 mmHg 89%
23:00 +8°C° 0 mm 2 mps 756 mmHg 90%

Mañana, 19 Abril, Lunes

Tiempo Temperatura Precipitaciones Viento Presión Humedad
00:00 +8°C° 0 mm 2 mps 756 mmHg 90%
01:00 +7°C° 0 mm 2 mps 756 mmHg 91%
02:00 +7°C° 0 mm 2 mps 756 mmHg 91%
03:00 +7°C° 0 mm 2 mps 756 mmHg 92%
04:00 +7°C° 0 mm 2 mps 756 mmHg 92%
05:00 +8°C° 0 mm 2 mps 756 mmHg 89%
06:00 +9°C° 0 mm 2 mps 756 mmHg 85%
07:00 +10°C° 0 mm 2 mps 756 mmHg 81%
08:00 +12°C° 0 mm 2 mps 756 mmHg 75%
09:00 +12°C° 0 mm 3 mps 756 mmHg 68%
10:00 +13°C° 0 mm 3 mps 756 mmHg 61%
11:00 +13°C° 0.2 mm 3 mps 756 mmHg 61%
12:00 +13°C° 0.2 mm 3 mps 756 mmHg 60%
13:00 +13°C° 0.2 mm 4 mps 756 mmHg 60%
14:00 +13°C° 0.2 mm 4 mps 756 mmHg 62%
15:00 +12°C° 0.2 mm 4 mps 755 mmHg 65%
16:00 +12°C° 0.2 mm 4 mps 755 mmHg 67%
17:00 +11°C° 0 mm 4 mps 755 mmHg 71%
18:00 +8°C° 0 mm 4 mps 756 mmHg 76%
19:00 +8°C° 0 mm 3 mps 756 mmHg 80%
20:00 +8°C° 0 mm 3 mps 756 mmHg 79%
21:00 +8°C° 0 mm 3 mps 756 mmHg 78%
22:00 +7°C° 0 mm 2 mps 756 mmHg 77%
23:00 +8°C° 0 mm 2 mps 755 mmHg 74%

Pasado mañana, 20 Abril, Martes

Tiempo Temperatura Precipitaciones Viento Presión Humedad
00:00 +8°C° 0 mm 2 mps 755 mmHg 71%
01:00 +8°C° 0 mm 2 mps 755 mmHg 68%
02:00 +8°C° 0 mm 2 mps 755 mmHg 68%
03:00 +8°C° 0 mm 2 mps 754 mmHg 68%
04:00 +7°C° 0 mm 2 mps 754 mmHg 68%
05:00 +8°C° 0 mm 2 mps 754 mmHg 70%
06:00 +8°C° 0 mm 2 mps 754 mmHg 73%
07:00 +8°C° 0 mm 2 mps 754 mmHg 76%
08:00 +9°C° 0.1 mm 2 mps 754 mmHg 70%
09:00 +10°C° 0.1 mm 2 mps 753 mmHg 65%
10:00 +11°C° 0.1 mm 3 mps 753 mmHg 60%
11:00 +11°C° 0.2 mm 3 mps 753 mmHg 60%
12:00 +11°C° 0.2 mm 3 mps 752 mmHg 60%
13:00 +12°C° 0.2 mm 3 mps 752 mmHg 61%
14:00 +11°C° 0.2 mm 3 mps 752 mmHg 63%
15:00 +11°C° 0.2 mm 3 mps 751 mmHg 65%
16:00 +11°C° 0.2 mm 3 mps 751 mmHg 67%
17:00 +10°C° 0.2 mm 3 mps 751 mmHg 73%
18:00 +9°C° 0.2 mm 2 mps 751 mmHg 79%
19:00 +8°C° 0.2 mm 2 mps 751 mmHg 85%
20:00 +7°C° 0 mm 2 mps 751 mmHg 86%
21:00 +8°C° 0 mm 1 mps 750 mmHg 88%
22:00 +7°C° 0 mm 1 mps 750 mmHg 89%
23:00 +7°C° 0 mm 1 mps 750 mmHg 90%

21 Abril, Miércoles

Tiempo Temperatura Precipitaciones Viento Presión Humedad
00:00 +6°C° 0 mm 1 mps 750 mmHg 90%
01:00 +5°C° 0 mm 2 mps 750 mmHg 91%
02:00 +5°C° 0 mm 2 mps 749 mmHg 90%
03:00 +4°C° 0 mm 2 mps 749 mmHg 90%
04:00 +4°C° 0 mm 2 mps 749 mmHg 90%
05:00 +5°C° 0 mm 2 mps 749 mmHg 86%
06:00 +6°C° 0 mm 2 mps 749 mmHg 82%
07:00 +7°C° 0 mm 2 mps 749 mmHg 78%
08:00 +8°C° 0.1 mm 2 mps 748 mmHg 72%
09:00 +10°C° 0.1 mm 2 mps 748 mmHg 66%
10:00 +12°C° 0.1 mm 2 mps 748 mmHg 60%
11:00 +11°C° 0.1 mm 3 mps 748 mmHg 58%
12:00 +12°C° 0.1 mm 3 mps 748 mmHg 56%
13:00 +12°C° 0.1 mm 3 mps 747 mmHg 54%
14:00 +11°C° 0.2 mm 3 mps 747 mmHg 62%
15:00 +10°C° 0.2 mm 3 mps 747 mmHg 70%
16:00 +9°C° 0.2 mm 3 mps 747 mmHg 78%
17:00 +9°C° 0.2 mm 2 mps 747 mmHg 81%
18:00 +8°C° 0.2 mm 2 mps 747 mmHg 85%
19:00 +8°C° 0.2 mm 1 mps 748 mmHg 88%
20:00 +8°C° 0 mm 1 mps 748 mmHg 88%
21:00 +8°C° 0 mm 1 mps 748 mmHg 88%
22:00 +7°C° 0 mm 0 mps 748 mmHg 88%
23:00 +7°C° 0 mm 1 mps 748 mmHg 90%

22 Abril, Jueves

Tiempo Temperatura Precipitaciones Viento Presión Humedad
00:00 +7°C° 0 mm 1 mps 748 mmHg 91%
01:00 +6°C° 0 mm 1 mps 748 mmHg 92%
02:00 +6°C° 0 mm 1 mps 749 mmHg 93%
03:00 +4°C° 0 mm 2 mps 749 mmHg 94%
04:00 +4°C° 0 mm 2 mps 749 mmHg 95%
05:00 +3°C° 0 mm 3 mps 750 mmHg 94%
06:00 +4°C° 0 mm 3 mps 750 mmHg 92%
07:00 +5°C° 0 mm 3 mps 751 mmHg 91%
08:00 +5°C° 0.1 mm 3 mps 752 mmHg 88%
09:00 +5°C° 0.1 mm 3 mps 752 mmHg 84%
10:00 +5°C° 0.1 mm 3 mps 753 mmHg 81%
11:00 +7°C° 0.1 mm 2 mps 753 mmHg 75%
12:00 +8°C° 0.1 mm 2 mps 754 mmHg 70%
13:00 +9°C° 0.1 mm 2 mps 754 mmHg 64%
14:00 +10°C° 0.1 mm 1 mps 754 mmHg 62%
15:00 +10°C° 0.1 mm 1 mps 754 mmHg 61%
16:00 +10°C° 0.1 mm 1 mps 755 mmHg 59%
17:00 +9°C° 0.2 mm 1 mps 755 mmHg 66%
18:00 +8°C° 0.2 mm 1 mps 755 mmHg 72%
19:00 +6°C° 0.2 mm 2 mps 756 mmHg 79%
20:00 +5°C° 0 mm 2 mps 756 mmHg 83%
21:00 +5°C° 0 mm 2 mps 757 mmHg 86%
22:00 +4°C° 0 mm 2 mps 757 mmHg 90%
23:00 +4°C° 0 mm 2 mps 757 mmHg 90%

23 Abril, Viernes

Tiempo Temperatura Precipitaciones Viento Presión Humedad
00:00 +3°C° 0 mm 2 mps 757 mmHg 91%
01:00 +3°C° 0 mm 2 mps 758 mmHg 91%
02:00 +3°C° 0 mm 2 mps 758 mmHg 92%
03:00 +3°C° 0 mm 2 mps 758 mmHg 92%
04:00 +3°C° 0 mm 2 mps 758 mmHg 93%
05:00 +4°C° 0 mm 2 mps 759 mmHg 89%
06:00 +5°C° 0 mm 2 mps 759 mmHg 85%
07:00 +6°C° 0 mm 2 mps 759 mmHg 81%
08:00 +7°C° 0 mm 3 mps 759 mmHg 75%
09:00 +7°C° 0 mm 4 mps 760 mmHg 69%
10:00 +8°C° 0 mm 4 mps 760 mmHg 63%
11:00 +10°C° 0 mm 4 mps 760 mmHg 61%
12:00 +9°C° 0 mm 5 mps 759 mmHg 60%
13:00 +10°C° 0 mm 5 mps 759 mmHg 58%
14:00 +10°C° 0 mm 5 mps 759 mmHg 63%
15:00 +12°C° 0 mm 5 mps 759 mmHg 67%
16:00 +13°C° 0 mm 5 mps 759 mmHg 71%
17:00 +12°C° 0.1 mm 5 mps 760 mmHg 76%
18:00 +10°C° 0.1 mm 5 mps 760 mmHg 80%
19:00 +9°C° 0.1 mm 5 mps 761 mmHg 85%
20:00 +8°C° 0 mm 4 mps 761 mmHg 87%
21:00 +8°C° 0 mm 4 mps 761 mmHg 89%
22:00 +7°C° 0 mm 4 mps 761 mmHg 91%
23:00 +8°C° 0 mm 3 mps 762 mmHg 92%
Mostrar más

Necesitamos Su Consentimiento

Meteoprog y nuestros Proveedores de Servicios pueden almacenar y acceder a sus datos personales como cookies, identificadores de dispositivo u otras tecnologías similares de su dispositivo y procesar dichos datos para personalizar contenido y anuncios, además de ofrecer funciones de redes sociales y analizar el tráfico.

  • Almacenar y/o acceder a información en su dispositivo

    Se puede almacenar o acceder a cookies, identificadores de dispositivo u otra información de su dispositivo para los fines anteriormente indicados.

  • Anuncios y contenido personalizados, medición de anuncios y contenido, percepciones del público, y desarrollo de productos

    Los anuncios y el contenido pueden personalizarse en base a su perfil. Se pueden añadir más datos para personalizar mejor los anuncios y contenidos. Se puede medir el rendimiento de los anuncios y contenidos. Se puede obtener la percepción sobre el público que ha visto los anuncios y contenidos. Dichos datos pueden usarse para desarrollar o mejorar la experiencia del usuario, sistemas y software.

Al hacer clic en ‘Estoy De Acuerdo’ usted permitirá el uso de las cookies, identificadores de dispositivo, balizas web u otras tecnologías similares indicadas. Su configuración puede cambiarse desde el navegador de su dispositivo.

Para ciertos fines, los intereses legítimos pueden ser considerados por encima del consentimiento. Puede leer más sobre ello en nuestra Política de Privacidad y Cookies.